Location: Caltech
(34.1382°N, 118.1253°W)
Time: 05:45:02
(UTC-07:00)

PANSAT - Visible Passes

Search period start: 24 October 2014 00:00
Search period end: 02 November 2014 23:00
Orbit: 489 x 496 km, 28.5° (Epoch: 23 October)

Date Brightness Start Highest point End Pass type
(mag) Time Alt. Az. Time Alt. Az. Time Alt. Az.
25 Oct 10.2 06:17:11 10° SSW 06:19:20 14° SSE 06:21:29 10° SE visible
26 Oct 10.1 05:51:31 10° SSW 05:53:48 15° SSE 05:56:05 10° ESE visible
27 Oct 9.9 05:26:56 14° S 05:28:16 16° SSE 05:30:40 10° ESE visible
28 Oct 10.0 05:03:07 16° SSE 05:03:07 16° SSE 05:05:13 10° ESE visible
28 Oct 9.0 06:38:57 10° WSW 06:42:24 32° S 06:45:50 10° ESE visible
29 Oct 10.6 04:39:13 12° SE 04:39:13 12° SE 04:39:45 10° ESE visible
29 Oct 8.9 06:13:38 11° WSW 06:16:50 32° S 06:20:18 10° ESE visible
30 Oct 8.8 05:49:40 23° SW 05:51:17 33° S 05:54:45 10° ESE visible
31 Oct 8.7 05:25:39 33° S 05:25:42 33° S 05:29:11 10° ESE visible
01 Nov 9.6 05:01:35 25° SE 05:01:35 25° SE 05:03:37 10° ESE visible
01 Nov 9.0 06:36:31 10° WSW 06:39:54 30° S 06:43:17 10° SE visible
02 Nov 10.6 03:37:30 13° ESE 03:37:30 13° ESE 03:38:01 10° ESE visible
02 Nov 8.9 05:11:54 16° WSW 05:14:18 29° S 05:17:40 10° SE visible
